Terminal Aerodrome Forecast
Issued by NWS Dodge City, KS

Home | Current Version | Previous Version | Text Only | Print | Product List | Glossary On
Versions: 1 2 3 4 5 6 7 8 9 10 11 12 13 14 15 16 17 18 19 20 21 22
000
FTUS43 KDDC 181720
TAFDDC
TAF
KDDC 181720Z 1818/1918 21017G27KT P6SM SCT040
     FM182100 21012KT P6SM SCT040
     FM190000 18008KT P6SM SKC
     FM191500 20015G25KT P6SM SKC
     FM191700 20025G35KT P6SM SKC=

USA.gov is the U.S. government's official web portal to all federal, state and local government web resources and services.